Retour au catalogue

CZ-6A R/B

ActifSSO
NORAD 60214·ROCKET BODY·🇨🇳 China

Lancé Jul 4, 2024 depuis Taiyuan Satellite Launch Center

Loading…

Prochains Passages (prochaines 24 heures)

TLE

FraisSource: Space-Track

Époque: Sep 14, 2026, 13:26 UTC

1 60214U 24126D   26257.56032952  .00002936  00000-0  15402-3 0  9997
2 60214  97.7704 290.4403 0067017 171.1536 189.0894 15.14663487120968

Suivez CZ-6A R/B en temps réel avec AllMySat

Download on the App Store